Time,TemperatureF,DewpointF,PressureIn,WindDirection,WindDirectionDegrees,WindSpeedMPH,WindSpeedGustMPH,Humidity,HourlyPrecipIn,Conditions,Clouds,dailyrainin,SolarRadiationWatts/m^2,SoftwareType,DateUTC
2013-11-22 00:05:00,46.4,46.0,30.11,SW,226,2.0,6.0,97,0.00,,,0.00,0,weatherlink.com 1.10,2013-11-22 05:05:00,
2013-11-22 00:20:00,46.3,46.0,30.11,SW,231,1.0,6.0,97,0.00,,,0.00,0,weatherlink.com 1.10,2013-11-22 05:20:00,
2013-11-22 00:35:00,46.2,45.0,30.12,SW,233,4.0,6.0,97,0.00,,,0.00,0,weatherlink.com 1.10,2013-11-22 05:35:00,
2013-11-22 00:50:00,46.1,45.0,30.11,WSW,251,5.0,7.0,97,0.00,,,0.00,0,weatherlink.com 1.10,2013-11-22 05:50:00,
2013-11-22 01:05:00,46.0,45.0,30.11,WSW,251,2.0,4.0,97,0.00,,,0.00,0,weatherlink.com 1.10,2013-11-22 06:05:00,
2013-11-22 01:20:00,45.9,45.0,30.10,WSW,251,0.0,4.0,97,0.01,,,0.01,0,weatherlink.com 1.10,2013-11-22 06:20:00,
2013-11-22 01:35:00,45.9,45.0,30.10,WSW,250,0.0,4.0,97,0.01,,,0.01,0,weatherlink.com 1.10,2013-11-22 06:35:00,
2013-11-22 01:50:00,45.9,45.0,30.10,WSW,251,2.0,2.0,97,0.01,,,0.01,0,weatherlink.com 1.10,2013-11-22 06:50:00,
2013-11-22 02:05:00,45.8,45.0,30.10,WSW,251,0.0,4.0,97,0.01,,,0.01,0,weatherlink.com 1.10,2013-11-22 07:05:00,
2013-11-22 02:20:00,45.8,45.0,30.10,WSW,250,2.0,5.0,97,0.00,,,0.01,0,weatherlink.com 1.10,2013-11-22 07:20:00,
2013-11-22 02:35:00,45.7,45.0,30.11,WSW,250,0.0,5.0,97,0.00,,,0.01,0,weatherlink.com 1.10,2013-11-22 07:35:00,
2013-11-22 02:50:00,45.7,45.0,30.11,WSW,251,2.0,4.0,97,0.00,,,0.01,0,weatherlink.com 1.10,2013-11-22 07:50:00,
2013-11-22 03:05:00,45.6,45.0,30.10,WSW,251,0.0,2.0,97,0.00,,,0.01,0,weatherlink.com 1.10,2013-11-22 08:05:00,
2013-11-22 03:20:00,45.6,45.0,30.10,WSW,250,2.0,4.0,97,0.00,,,0.01,0,weatherlink.com 1.10,2013-11-22 08:20:00,
2013-11-22 03:35:00,45.6,45.0,30.11,WSW,251,2.0,6.0,97,0.00,,,0.01,0,weatherlink.com 1.10,2013-11-22 08:35:00,
2013-11-22 03:50:00,45.5,45.0,30.12,WNW,303,3.0,9.0,97,0.00,,,0.01,0,weatherlink.com 1.10,2013-11-22 08:50:00,
2013-11-22 04:05:00,45.5,45.0,30.11,WNW,303,0.0,4.0,97,0.00,,,0.01,0,weatherlink.com 1.10,2013-11-22 09:05:00,
2013-11-22 04:20:00,45.5,45.0,30.10,WNW,303,2.0,4.0,97,0.00,,,0.01,0,weatherlink.com 1.10,2013-11-22 09:20:00,
2013-11-22 04:35:00,45.5,45.0,30.10,NW,310,2.0,8.0,97,0.00,,,0.01,0,weatherlink.com 1.10,2013-11-22 09:35:00,
2013-11-22 04:50:00,44.9,44.0,30.10,NNW,335,4.0,11.0,97,0.00,,,0.01,0,weatherlink.com 1.10,2013-11-22 09:50:00,
2013-11-22 05:05:00,44.1,43.0,30.12,NNW,333,4.0,12.0,97,0.00,,,0.01,0,weatherlink.com 1.10,2013-11-22 10:05:00,
2013-11-22 05:20:00,43.7,43.0,30.12,NNW,332,2.0,9.0,97,0.00,,,0.01,0,weatherlink.com 1.10,2013-11-22 10:20:00,
2013-11-22 05:35:00,43.4,43.0,30.13,NW,320,4.0,11.0,97,0.00,,,0.01,0,weatherlink.com 1.10,2013-11-22 10:35:00,
2013-11-22 05:50:00,43.3,43.0,30.13,NNW,334,8.0,9.0,97,0.00,,,0.01,0,weatherlink.com 1.10,2013-11-22 10:50:00,
2013-11-22 06:05:00,43.0,42.0,30.13,NW,319,2.0,13.0,97,0.00,,,0.01,0,weatherlink.com 1.10,2013-11-22 11:05:00,
2013-11-22 06:20:00,42.8,42.0,30.14,NNW,331,3.0,11.0,96,0.00,,,0.01,0,weatherlink.com 1.10,2013-11-22 11:20:00,
2013-11-22 06:35:00,42.6,42.0,30.14,NNE,30,3.0,6.0,96,0.00,,,0.01,0,weatherlink.com 1.10,2013-11-22 11:35:00,
2013-11-22 06:50:00,42.2,41.0,30.14,NNW,328,2.0,10.0,95,0.00,,,0.01,0,weatherlink.com 1.10,2013-11-22 11:50:00,
2013-11-22 07:05:00,42.0,41.0,30.15,NNW,335,10.0,12.0,95,0.00,,,0.01,0,weatherlink.com 1.10,2013-11-22 12:05:00,
2013-11-22 07:20:00,41.9,40.0,30.16,WNW,297,5.0,9.0,94,0.00,,,0.01,0,weatherlink.com 1.10,2013-11-22 12:20:00,
2013-11-22 07:35:00,41.8,40.0,30.16,NNW,334,3.0,9.0,94,0.00,,,0.01,0,weatherlink.com 1.10,2013-11-22 12:35:00,
2013-11-22 07:50:00,41.7,40.0,30.17,NW,310,6.0,8.0,94,0.00,,,0.01,0,weatherlink.com 1.10,2013-11-22 12:50:00,
2013-11-22 08:05:00,41.7,40.0,30.17,WNW,298,3.0,8.0,93,0.00,,,0.01,0,weatherlink.com 1.10,2013-11-22 13:05:00,
2013-11-22 08:21:00,41.6,40.0,30.17,WNW,297,8.0,9.0,93,0.00,,,0.01,7,weatherlink.com 1.10,2013-11-22 13:21:00,
2013-11-22 08:36:00,41.6,40.0,30.18,WNW,297,3.0,11.0,93,0.00,,,0.01,5,weatherlink.com 1.10,2013-11-22 13:36:00,
2013-11-22 08:51:00,41.5,40.0,30.19,NW,310,3.0,13.0,93,0.01,,,0.02,11,weatherlink.com 1.10,2013-11-22 13:51:00,
2013-11-22 09:06:00,41.5,39.0,30.20,NW,317,0.0,13.0,92,0.01,,,0.02,16,weatherlink.com 1.10,2013-11-22 14:06:00,
2013-11-22 09:21:00,41.4,40.0,30.20,NW,313,8.0,11.0,93,0.01,,,0.02,32,weatherlink.com 1.10,2013-11-22 14:21:00,
2013-11-22 09:36:00,41.0,39.0,30.21,NNW,329,5.0,15.0,93,0.01,,,0.02,42,weatherlink.com 1.10,2013-11-22 14:36:00,
2013-11-22 09:51:00,40.7,39.0,30.21,North,354,18.0,18.0,93,0.00,,,0.02,56,weatherlink.com 1.10,2013-11-22 14:51:00,
2013-11-22 10:06:00,40.7,39.0,30.22,NNE,21,11.0,14.0,93,0.00,,,0.02,67,weatherlink.com 1.10,2013-11-22 15:06:00,
2013-11-22 10:21:00,40.5,39.0,30.23,NNW,347,5.0,17.0,93,0.00,,,0.02,56,weatherlink.com 1.10,2013-11-22 15:21:00,
2013-11-22 10:36:00,40.2,38.0,30.24,NW,318,4.0,13.0,93,0.00,,,0.02,93,weatherlink.com 1.10,2013-11-22 15:36:00,
2013-11-22 10:51:00,40.1,38.0,30.25,NNW,340,8.0,18.0,92,0.00,,,0.02,42,weatherlink.com 1.10,2013-11-22 15:51:00,
2013-11-22 11:06:00,39.9,38.0,30.26,WNW,293,4.0,15.0,91,0.00,,,0.02,35,weatherlink.com 1.10,2013-11-22 16:06:00,
2013-11-22 11:21:00,39.6,37.0,30.27,NNW,345,12.0,16.0,91,0.00,,,0.02,46,weatherlink.com 1.10,2013-11-22 16:21:00,
2013-11-22 11:36:00,39.1,37.0,30.26,WNW,295,11.0,19.0,91,0.00,,,0.02,84,weatherlink.com 1.10,2013-11-22 16:36:00,
2013-11-22 11:51:00,39.0,37.0,30.26,WNW,299,8.0,15.0,91,0.00,,,0.02,86,weatherlink.com 1.10,2013-11-22 16:51:00,
2013-11-22 12:06:00,39.0,36.0,30.26,NNE,14,8.0,16.0,90,0.00,,,0.02,139,weatherlink.com 1.10,2013-11-22 17:06:00,
2013-11-22 12:21:00,39.3,36.0,30.26,North,11,12.0,18.0,88,0.00,,,0.02,144,weatherlink.com 1.10,2013-11-22 17:21:00,
2013-11-22 12:36:00,39.4,36.0,30.26,NW,309,3.0,15.0,88,0.00,,,0.02,107,weatherlink.com 1.10,2013-11-22 17:36:00,
2013-11-22 12:51:00,38.8,36.0,30.27,NNW,345,12.0,16.0,89,0.00,,,0.02,123,weatherlink.com 1.10,2013-11-22 17:51:00,
2013-11-22 13:06:00,39.0,36.0,30.27,NW,305,4.0,24.0,88,0.00,,,0.02,162,weatherlink.com 1.10,2013-11-22 18:06:00,
2013-11-22 13:21:00,38.7,36.0,30.27,WNW,303,5.0,13.0,91,0.00,,,0.02,227,weatherlink.com 1.10,2013-11-22 18:21:00,
2013-11-22 13:36:00,38.6,36.0,30.27,NNW,337,9.0,17.0,89,0.00,,,0.02,199,weatherlink.com 1.10,2013-11-22 18:36:00,
2013-11-22 13:51:00,38.9,36.0,30.27,North,354,8.0,16.0,88,0.00,,,0.02,141,weatherlink.com 1.10,2013-11-22 18:51:00,
2013-11-22 14:07:00,38.6,36.0,30.26,NW,325,1.0,12.0,90,0.00,,,0.02,95,weatherlink.com 1.10,2013-11-22 19:07:00,
2013-11-22 14:21:00,38.5,36.0,30.27,NNW,341,10.0,17.0,90,0.01,,,0.03,230,weatherlink.com 1.10,2013-11-22 19:21:00,
2013-11-22 14:36:00,38.7,36.0,30.27,NW,322,11.0,15.0,88,0.01,,,0.03,104,weatherlink.com 1.10,2013-11-22 19:36:00,
2013-11-22 14:51:00,38.9,36.0,30.27,NW,326,9.0,14.0,89,0.01,,,0.03,162,weatherlink.com 1.10,2013-11-22 19:51:00,
2013-11-22 15:06:00,38.0,35.0,30.27,NNW,339,3.0,17.0,88,0.01,,,0.03,107,weatherlink.com 1.10,2013-11-22 20:06:00,
2013-11-22 15:22:00,38.2,35.0,30.28,WNW,295,9.0,13.0,88,0.00,,,0.03,149,weatherlink.com 1.10,2013-11-22 20:22:00,
2013-11-22 15:37:00,37.4,35.0,30.29,NW,322,3.0,14.0,89,0.01,,,0.04,183,weatherlink.com 1.10,2013-11-22 20:37:00,
2013-11-22 15:52:00,37.6,34.0,30.30,NNW,328,11.0,17.0,87,0.01,,,0.04,76,weatherlink.com 1.10,2013-11-22 20:52:00,
2013-11-22 16:07:00,37.6,34.0,30.31,NNW,339,4.0,17.0,86,0.01,,,0.04,32,weatherlink.com 1.10,2013-11-22 21:07:00,
2013-11-22 16:22:00,37.3,34.0,30.32,NNW,340,11.0,14.0,87,0.01,,,0.04,125,weatherlink.com 1.10,2013-11-22 21:22:00,
2013-11-22 16:37:00,37.0,34.0,30.33,NNW,342,3.0,15.0,87,0.00,,,0.04,67,weatherlink.com 1.10,2013-11-22 21:37:00,
2013-11-22 16:52:00,36.8,33.0,30.34,WNW,287,5.0,14.0,87,0.00,,,0.04,25,weatherlink.com 1.10,2013-11-22 21:52:00,
2013-11-22 17:07:00,36.4,33.0,30.34,NW,312,3.0,12.0,88,0.00,,,0.04,12,weatherlink.com 1.10,2013-11-22 22:07:00,
2013-11-22 17:22:00,35.9,33.0,30.34,NNW,346,2.0,13.0,88,0.00,,,0.04,0,weatherlink.com 1.10,2013-11-22 22:22:00,
2013-11-22 17:37:00,35.7,32.0,30.35,North,4,2.0,14.0,86,0.00,,,0.04,0,weatherlink.com 1.10,2013-11-22 22:37:00,
2013-11-22 17:52:00,35.3,31.0,30.36,NNW,348,8.0,14.0,85,0.00,,,0.04,0,weatherlink.com 1.10,2013-11-22 22:52:00,
2013-11-22 18:07:00,35.0,31.0,30.36,NNW,332,5.0,12.0,86,0.00,,,0.04,0,weatherlink.com 1.10,2013-11-22 23:07:00,
2013-11-22 18:22:00,35.1,31.0,30.36,NW,326,1.0,12.0,85,0.00,,,0.04,0,weatherlink.com 1.10,2013-11-22 23:22:00,
2013-11-22 18:37:00,35.3,31.0,30.37,North,354,13.0,13.0,84,0.00,,,0.04,0,weatherlink.com 1.10,2013-11-22 23:37:00,
2013-11-22 18:52:00,35.2,31.0,30.37,NNW,339,7.0,13.0,83,0.00,,,0.04,0,weatherlink.com 1.10,2013-11-22 23:52:00,
2013-11-22 19:07:00,35.0,30.0,30.37,North,4,3.0,10.0,83,0.00,,,0.04,0,weatherlink.com 1.10,2013-11-23 00:07:00,
2013-11-22 19:22:00,34.7,30.0,30.37,NNW,335,8.0,11.0,83,0.00,,,0.04,0,weatherlink.com 1.10,2013-11-23 00:22:00,
2013-11-22 19:37:00,34.4,30.0,30.37,North,359,3.0,8.0,83,0.00,,,0.04,0,weatherlink.com 1.10,2013-11-23 00:37:00,
2013-11-22 19:52:00,34.1,29.0,30.37,North,349,2.0,9.0,82,0.00,,,0.04,0,weatherlink.com 1.10,2013-11-23 00:52:00,
2013-11-22 20:07:00,33.8,29.0,30.37,North,4,1.0,7.0,82,0.00,,,0.04,0,weatherlink.com 1.10,2013-11-23 01:07:00,
2013-11-22 20:22:00,33.5,29.0,30.37,NNW,348,3.0,6.0,82,0.00,,,0.04,0,weatherlink.com 1.10,2013-11-23 01:22:00,
2013-11-22 20:37:00,33.1,28.0,30.37,NNW,348,1.0,7.0,82,0.00,,,0.04,0,weatherlink.com 1.10,2013-11-23 01:37:00,
2013-11-22 20:52:00,32.9,28.0,30.37,NNW,348,0.0,5.0,82,0.00,,,0.04,0,weatherlink.com 1.10,2013-11-23 01:52:00,
2013-11-22 21:07:00,32.5,28.0,30.37,NNW,348,0.0,4.0,83,0.00,,,0.04,0,weatherlink.com 1.10,2013-11-23 02:07:00,
2013-11-22 21:22:00,32.2,28.0,30.37,NNW,348,0.0,2.0,84,0.00,,,0.04,0,weatherlink.com 1.10,2013-11-23 02:22:00,
2013-11-22 21:37:00,31.5,27.0,30.38,NNW,348,2.0,2.0,84,0.00,,,0.04,0,weatherlink.com 1.10,2013-11-23 02:37:00,
2013-11-22 21:52:00,30.9,27.0,30.38,NNW,348,0.0,2.0,86,0.00,,,0.04,0,weatherlink.com 1.10,2013-11-23 02:52:00,
2013-11-22 22:07:00,30.5,27.0,30.38,NNW,348,0.0,2.0,87,0.00,,,0.04,0,weatherlink.com 1.10,2013-11-23 03:07:00,
2013-11-22 22:22:00,30.2,27.0,30.38,NNW,348,0.0,0.0,88,0.00,,,0.04,0,weatherlink.com 1.10,2013-11-23 03:22:00,
2013-11-22 22:38:00,29.9,27.0,30.37,NNW,348,1.0,3.0,89,0.00,,,0.04,0,weatherlink.com 1.10,2013-11-23 03:38:00,
2013-11-22 22:53:00,29.5,27.0,30.38,NNW,348,0.0,1.0,90,0.00,,,0.04,0,weatherlink.com 1.10,2013-11-23 03:53:00,
2013-11-22 23:08:00,29.4,27.0,30.38,NNW,348,2.0,4.0,91,0.00,,,0.04,0,weatherlink.com 1.10,2013-11-23 04:08:00,
2013-11-22 23:23:00,29.4,27.0,30.38,NNW,348,0.0,3.0,91,0.00,,,0.04,0,weatherlink.com 1.10,2013-11-23 04:23:00,
2013-11-22 23:38:00,29.4,27.0,30.38,NNW,348,3.0,4.0,90,0.00,,,0.04,0,weatherlink.com 1.10,2013-11-23 04:38:00,
2013-11-22 23:53:00,29.4,27.0,30.38,NNW,348,2.0,4.0,90,0.00,,,0.04,0,weatherlink.com 1.10,2013-11-23 04:53:00,